STELLA (22824 NORAD) Tracking and Keplerian Element Data

This shows tracking and keplerian element data for the satellite.

Feedback or suggestion? Click here.




ElementValue
Catalog22824
NameSTELLA
Epoch Orbit67922
Epoch Day354.10227144
Epoch Year2025
RAAN52.4895
Inclination98.7999
Eccentricity0.0007116
Argument of Perigee45.3094
Mean Anonmoly15.9853
Mean Motion14.27464247
Decay Rate-2.3E-07
L11 22824U 93061B 25354.10227144 -.00000023 00000+0 90364-5 0 9999
L22 22824 98.7999 52.4895 0007116 45.3094 15.9853 14.27464247679222



Live tracking and technical data element details for STELLA (NORAD 22824). STELLA can be tracked NOW for your location showing map with azimuth and elevation plus other details from your city location.







IsCatalogInMostPopularTable: catalog: 22824, numindb: 675
Update: records affected: 1



GetName: 22824 STELLA

Hit Count: updated at: Thu, 16 Apr 2026 04:11:55 GMT